星链-35977(STARLINK-35977)

导读

STARLINK-35977是美国SpaceX公司于2025年11月22日发射的星链(Starlink)低轨互联网卫星,属于全球星链星座组网的组成部分。星链项目旨在为全球尤其是偏远无基础设施覆盖区域提供高速低时延宽带互联网服务,该卫星可支持手机直连等业务,通过激光星间链路与星座中其他卫星协同,助力实现全球全域连续网络覆盖。

基本信息
目录编号:
66604
目录名称:
STARLINK-35977
国际标识:
2025-270S
轨道中心:
EARTH
卫星名称:
星链-35977
卫星全名:
星链-35977(STARLINK-35977)
卫星状态:
在轨 (已飞行203 天)
发射日期:
2025-11-22 UTC
国别 :
美国 (US)
星等 :
--
轨道信息
数据来源 国际轨道数据
星历时间: 2026-06-12T00:05:35+0800
1天前
查看轨道信息
半长轴: 6861.164km
偏心率: 0.0000277
轨道倾角: 42.997°
近地点辐角 226.604°
升交点赤经 245.025°
平近点角 133.479°
近地点: 482.836km
远地点: 483.218km
周期: 94.266分钟
每日圈数: 15.275875
详细信息
固有亮度:
5
最大亮度:
2.5
卫星平台:
Starlink V1.0
覆盖范围:
全球
运营商:
太空探索技术公司
运营商所在国:
美国
制造商(研发单位):
太空探索技术公司
制造商所在国:
美国
使用方式:
暂无
卫星简介
Starlink 计划是 SpaceX 推出的全球卫星互联网项目,通过发射低轨道卫星,为全球尤其是偏远地区提供高速、低延迟的互联网服务。自 2019 年起,Starlink 已部署数千颗卫星,旨在缩小全球数字鸿沟,推动互联网普及。该项目还为军事、航空等行业提供通信支持,带来广泛经济效益。
2D轨道图
3D轨道图
轨道高度分析图
轨道倾角分析图
轨道综合分析图
查看轨道综合分析图